GW2986 Weather Reports


time (UTC)temp
F
wind
direction
speed
knots
gust
knots
rain 1hr
in
rain 24hr
in
rain mn
in
humidity
%
barometer
mb
20260906210009 92 340 0.0 0.9 0.00 0.00 0.00 35 1004.0
20260906204600 92 340 0.0 0.9 0.00 0.00 0.00 36 1004.0
20260906203052 92 349 10.4 14.8 0.00 0.00 0.00 37 1004.3
20260906201552 92 235 0.0 0.0 0.00 0.00 0.00 37 1004.5
20260906200152 92 267 0.0 12.2 0.00 0.00 0.00 37 1004.6
20260906194602 93 143 0.0 1.7 0.00 0.00 0.00 36 1004.7
20260906193045 92 143 0.0 0.9 0.00 0.00 0.00 37 1005.0
20260906191543 92 159 0.0 0.9 0.00 0.00 0.00 37 1005.1
20260906190040 92 124 0.0 0.9 0.00 0.00 0.00 37 1005.3
20260906184526 91 69 0.9 7.0 0.00 0.00 0.00 36 1005.5
20260906183030 91 359 0.0 3.5 0.00 0.00 0.00 38 1005.9
20260906181534 91 360 0.9 5.2 0.00 0.00 0.00 38 1006.2
20260906180026 89 271 2.6 6.1 0.00 0.00 0.00 41 1006.4
20260906174514 88 280 0.0 0.9 0.00 0.00 0.00 42 1006.8
20260906173009 86 287 0.0 0.9 0.00 0.00 0.00 43 1007.1
20260906171507 85 269 0.0 0.9 0.00 0.00 0.00 44 1007.5
20260906170003 84 287 0.0 3.5 0.00 0.00 0.00 45 1007.7
20260906164600 83 256 0.0 0.9 0.00 0.00 0.00 48 1007.9
20260906163045 82 248 0.0 0.0 0.00 0.00 0.00 49 1008.0
20260906161559 80 265 0.0 0.0 0.00 0.00 0.00 52 1008.3
20260906160038 78 252 0.0 0.9 0.00 0.00 0.00 55 1008.3
20260906154538 76 255 0.0 0.0 0.00 0.00 0.00 57 1008.3
20260906153041 75 257 0.0 0.0 0.00 0.00 0.00 61 1008.4
20260906151527 73 277 0.0 0.0 0.00 0.00 0.00 63 1008.6
20260906150024 72 253 0.0 0.9 0.00 0.00 0.00 65 1008.7
20260906144524 71 243 0.0 0.9 0.00 0.00 0.00 68 1009.0
20260906143101 70 255 0.0 0.0 0.00 0.00 0.00 71 1009.1
20260906143001 70 254 0.0 0.0 0.00 0.00 0.00 71 1009.0
20260906141617 68 255 0.0 0.0 0.00 0.00 0.00 77 1009.1
20260906140044 67 255 0.0 0.0 0.00 0.00 0.00 79 1009.2
20260906134548 65 254 0.0 0.0 0.00 0.00 0.00 83 1009.5
20260906133050 63 255 0.0 0.0 0.00 0.00 0.00 85 1009.4
20260906131559 62 254 0.0 0.0 0.00 0.00 0.00 86 1009.4
20260906130053 0 0.0 0.0 0.00 0.00 0.00 1009.5
20260906124536 0 0.0 0.0 0.00 0.00 0.00 1009.4
20260906123036 0 0.0 0.0 0.00 0.00 0.00 1009.5
20260906121535 0 0.0 0.0 0.00 0.00 0.00 1009.2
20260906120011 0 0.0 0.0 0.00 0.00 0.00 1009.2
20260906114515 0 0.0 0.0 0.00 0.00 0.00 1009.1
20260906113003 0 0.0 0.0 0.00 0.00 0.00 1009.0
20260906111559 0 0.0 0.0 0.00 0.00 0.00 1008.9
20260906110054 0 0.0 0.0 0.00 0.00 0.00 1008.8
20260906104551 0 0.0 0.0 0.00 0.00 0.00 1008.6
20260906103049 61 255 0.0 0.0 0.00 0.00 0.00 86 1008.7
20260906101546 63 255 0.0 0.0 0.00 0.00 0.00 86 1008.7
20260906100035 63 259 0.0 0.0 0.00 0.00 0.00 85 1008.7
20260906094528 63 258 0.0 0.0 0.00 0.00 0.00 84 1008.6
20260906093025 64 259 0.0 0.0 0.00 0.00 0.00 82 1008.5
20260906091526 65 259 0.0 0.0 0.00 0.00 0.00 81 1008.3
20260906090125 65 258 0.0 0.0 0.00 0.00 0.00 79 1008.2
20260906084522 66 261 0.0 0.0 0.00 0.00 0.00 78 1007.8
20260906083020 66 262 0.0 0.0 0.00 0.00 0.00 78 1007.6
20260906081521 65 261 0.0 0.9 0.00 0.00 0.00 80 1007.5
20260906080059 66 262 0.0 0.0 0.00 0.00 0.00 81 1007.8
20260906074556 66 260 0.0 0.0 0.00 0.00 0.00 80 1007.7
20260906073044 66 261 0.0 0.0 0.00 0.00 0.00 80 1008.0
20260906071542 66 252 0.0 0.0 0.00 0.00 0.00 80 1008.0
20260906070040 67 258 0.0 0.9 0.00 0.00 0.00 79 1007.9
20260906064538 67 251 0.0 0.9 0.00 0.00 0.00 77 1008.2
20260906063035 68 263 0.0 0.9 0.00 0.00 0.00 76 1008.1
20260906061538 68 266 0.0 0.9 0.00 0.00 0.00 76 1008.2
20260906060032 68 257 0.0 0.0 0.00 0.00 0.00 75 1007.9
20260906054531 68 262 0.0 3.5 0.00 0.00 0.00 75 1007.7
20260906053018 69 254 6.1 11.3 0.00 0.00 0.00 74 1007.3
20260906051518 68 297 0.0 0.0 0.00 0.00 0.00 76 1007.3
20260906050015 69 280 0.0 0.9 0.00 0.00 0.00 76 1007.1
20260906044518 69 278 0.0 0.9 0.00 0.00 0.00 75 1006.8
20260906043026 71 291 0.0 0.9 0.00 0.00 0.00 68 1007.0
20260906041514 71 280 0.0 0.9 0.00 0.00 0.00 66 1007.2
20260906040013 70 266 0.0 7.8 0.00 0.00 0.00 72 1007.5
20260906034520 69 113 0.0 0.0 0.00 0.00 0.00 80 1007.6
20260906033011 69 127 2.6 7.0 0.00 0.00 0.00 79 1007.6
20260906031514 69 127 0.0 0.0 0.00 0.00 0.00 79 1007.1
20260906030054 69 136 0.0 2.6 0.00 0.00 0.00 78 1006.8
20260906024554 69 104 0.0 0.9 0.00 0.00 0.00 77 1006.7
20260906023038 69 119 0.0 5.2 0.00 0.00 0.00 78 1006.6
20260906021542 69 107 8.7 12.2 0.00 0.00 0.00 75 1006.9
20260906020037 70 167 0.0 1.7 0.00 0.00 0.00 69 1007.4
20260906014542 72 109 0.0 0.9 0.00 0.00 0.00 68 1007.0
20260906013034 73 174 7.8 20.0 0.00 0.00 0.00 65 1006.7
20260906011533 76 195 13.0 20.9 0.00 0.00 0.00 61 1006.2
20260906010036 78 119 4.3 13.0 0.00 0.00 0.00 56 1005.0
20260906004532 80 159 8.7 15.6 0.00 0.00 0.00 53 1005.3
20260906003021 81 197 7.0 18.2 0.00 0.00 0.00 53 1005.1
20260906001539 80 198 8.7 18.2 0.00 0.00 0.00 55 1005.2
20260906000019 82 113 13.9 20.9 0.00 0.00 0.00 51 1004.9
20260905234518 87 187 9.6 18.2 0.00 0.00 0.00 46 1003.8
20260905233018 95 229 0.0 1.7 0.00 0.00 0.00 35 1003.1
20260905231522 97 172 0.0 0.9 0.00 0.00 0.00 33 1002.9
20260905230014 100 201 0.0 0.9 0.00 0.00 0.00 21 1002.9
20260905224513 103 273 0.0 0.9 0.00 0.00 0.00 20 1002.6
20260905223058 101 274 0.0 0.9 0.00 0.00 0.00 20 1002.5
20260905221600 100 274 0.0 0.0 0.00 0.00 0.00 21 1003.0
20260905220058 99 271 0.0 0.9 0.00 0.00 0.00 22 1003.0
20260905214551 99 267 0.0 0.0 0.00 0.00 0.00 23 1003.2
20260905213050 99 259 0.0 0.9 0.00 0.00 0.00 24 1003.5
20260905211548 99 160 0.0 0.9 0.00 0.00 0.00 23 1003.8